AAL442 KCLT-KPWM

Flight info

Callsign AAL442
Flight time N/A
Altitude 37000
Route BARMY5 RDU NOWAE Q87 GEARS BBOBO Q22 LLUND BDR SCOGS3
Aircraft B77W/H-SDE1E2E3FGHIJ2J3J4J5M1RWXY/LB1D1

Departure

Time 2026-05-04 21:45
Airport Charlotte Douglas International Airport (KCLT)

Arrival

Time N/A
Airport Portland International Jetport (KPWM)
Time Latitude Longitude Altitude Speed Heading
2026-05-04 21:22 35.21757 -80.94612 724 ft 0 kts 57°
2026-05-04 21:33 35.21756 -80.94614 724 ft 2 kts 57°
2026-05-04 21:33 35.21747 -80.94633 723 ft 3 kts 64°
2026-05-04 21:34 35.21736 -80.94664 724 ft 3 kts 73°
2026-05-04 21:34 35.21730 -80.94696 725 ft 4 kts 87°
2026-05-04 21:34 35.21733 -80.94726 723 ft 3 kts 122°
2026-05-04 21:34 35.21743 -80.94738 723 ft 0 kts 173°
2026-05-04 21:38 35.21741 -80.94738 723 ft 1 kts 173°
2026-05-04 21:38 35.21685 -80.94731 726 ft 10 kts 176°
2026-05-04 21:38 35.21620 -80.94785 725 ft 16 kts 246°
2026-05-04 21:39 35.21604 -80.94964 727 ft 23 kts 272°
2026-05-04 21:39 35.21678 -80.95035 724 ft 15 kts
2026-05-04 21:39 35.21782 -80.95038 725 ft 15 kts 356°
2026-05-04 21:39 35.21885 -80.95046 724 ft 15 kts 359°
2026-05-04 21:40 35.21992 -80.95055 725 ft 15 kts 355°
2026-05-04 21:40 35.22098 -80.95067 721 ft 15 kts 355°
2026-05-04 21:40 35.22206 -80.95073 721 ft 15 kts 357°
2026-05-04 21:40 35.22312 -80.95080 722 ft 16 kts 355°
2026-05-04 21:41 35.22419 -80.95090 720 ft 16 kts 355°
2026-05-04 21:41 35.22527 -80.95099 719 ft 16 kts 356°
2026-05-04 21:41 35.22637 -80.95108 718 ft 16 kts 356°
2026-05-04 21:41 35.22711 -80.95133 718 ft 6 kts 313°
2026-05-04 21:42 35.22726 -80.95175 718 ft 0 kts 281°
2026-05-04 21:42 35.22726 -80.95176 718 ft 0 kts 281°
2026-05-04 21:42 35.22726 -80.95179 718 ft 0 kts 281°
2026-05-04 21:43 35.22728 -80.95228 716 ft 18 kts 267°
2026-05-04 21:43 35.22661 -80.95308 717 ft 14 kts 181°
2026-05-04 21:43 35.22581 -80.95303 719 ft 0 kts 176°
2026-05-04 21:44 35.22415 -80.95288 720 ft 77 kts 176°
2026-05-04 21:44 35.21477 -80.95213 726 ft 194 kts 175°
2026-05-04 21:45 35.20028 -80.95076 1085 ft 212 kts 178°
2026-05-04 21:45 35.18523 -80.94927 1194 ft 228 kts 176°
2026-05-04 21:45 35.16897 -80.94767 1570 ft 243 kts 176°
2026-05-04 21:45 35.15187 -80.94595 2384 ft 247 kts 177°
2026-05-04 21:46 35.13484 -80.94424 3348 ft 244 kts 177°
2026-05-04 21:46 35.11798 -80.93978 4160 ft 258 kts 156°
2026-05-04 21:46 35.10371 -80.92573 5161 ft 270 kts 135°
2026-05-04 21:46 35.09129 -80.90773 6050 ft 283 kts 132°
2026-05-04 21:47 35.07882 -80.88884 6993 ft 288 kts 124°
2026-05-04 21:47 35.07153 -80.86606 7729 ft 292 kts 98°
2026-05-04 21:47 35.07306 -80.84113 8454 ft 300 kts 70°
2026-05-04 21:47 35.08341 -80.81928 9542 ft 298 kts 44°
2026-05-04 21:48 35.09902 -80.80263 10542 ft 300 kts 34°
2026-05-04 21:48 35.11612 -80.78731 11236 ft 315 kts 32°
2026-05-04 21:48 35.13458 -80.77132 11486 ft 344 kts 32°
2026-05-04 21:48 35.15515 -80.75370 12034 ft 361 kts 32°
2026-05-04 21:49 35.17514 -80.73602 13162 ft 358 kts 37°
2026-05-04 21:49 35.19053 -80.71235 14471 ft 355 kts 61°
2026-05-04 21:49 35.19798 -80.68361 15391 ft 347 kts 80°
2026-05-04 21:49 35.20153 -80.65514 15958 ft 343 kts 78°
2026-05-04 21:50 35.20624 -80.62653 16040 ft 346 kts 76°
2026-05-04 21:50 35.21142 -80.59792 16041 ft 344 kts 75°
2026-05-04 21:50 35.21682 -80.56858 16182 ft 364 kts 75°
2026-05-04 21:50 35.22230 -80.53882 16383 ft 390 kts 76°
2026-05-04 21:51 35.22828 -80.50594 16596 ft 416 kts 76°
2026-05-04 21:51 35.23469 -80.47040 16880 ft 438 kts 76°
2026-05-04 21:51 35.24125 -80.43352 17563 ft 449 kts 76°
2026-05-04 21:51 35.24790 -80.39593 18354 ft 456 kts 76°
2026-05-04 21:52 35.25464 -80.35773 19092 ft 462 kts 76°
2026-05-04 21:52 35.26150 -80.31882 19812 ft 469 kts 76°
2026-05-04 21:52 35.26841 -80.27955 20497 ft 475 kts 76°
2026-05-04 21:52 35.27541 -80.23976 21153 ft 482 kts 76°
2026-05-04 21:53 35.28245 -80.19966 21770 ft 489 kts 76°
2026-05-04 21:53 35.28964 -80.15868 22378 ft 496 kts 76°
2026-05-04 21:53 35.29691 -80.11732 23021 ft 502 kts 75°
2026-05-04 21:53 35.30584 -80.07566 23032 ft 506 kts 70°
2026-05-04 21:54 35.31761 -80.03525 23043 ft 501 kts 67°
2026-05-04 21:54 35.32974 -79.99545 23036 ft 499 kts 67°
2026-05-04 21:54 35.34178 -79.95567 23061 ft 499 kts 68°
2026-05-04 21:54 35.35349 -79.91620 23039 ft 499 kts 68°
2026-05-04 21:55 35.36516 -79.87621 23032 ft 498 kts 68°
2026-05-04 21:55 35.37672 -79.83639 23019 ft 497 kts 68°
2026-05-04 21:55 35.38830 -79.79648 23009 ft 497 kts 68°
2026-05-04 21:55 35.39968 -79.75731 23021 ft 497 kts 68°
2026-05-04 21:56 35.41127 -79.71740 23032 ft 498 kts 68°
2026-05-04 21:56 35.42303 -79.67691 23535 ft 505 kts 68°
2026-05-04 21:56 35.43479 -79.63630 24125 ft 508 kts 68°
2026-05-04 21:56 35.44665 -79.59528 24685 ft 511 kts 68°
2026-05-04 21:57 35.45857 -79.55404 25188 ft 516 kts 68°
2026-05-04 21:57 35.47060 -79.51228 25648 ft 521 kts 68°
2026-05-04 21:57 35.48273 -79.47015 26096 ft 525 kts 68°
2026-05-04 21:57 35.49491 -79.42771 26522 ft 529 kts 68°
2026-05-04 21:58 35.50718 -79.38494 26927 ft 532 kts 68°
2026-05-04 21:58 35.51950 -79.34192 27312 ft 536 kts 68°
2026-05-04 21:58 35.53164 -79.29943 27751 ft 537 kts 68°
2026-05-04 21:58 35.54419 -79.25544 28317 ft 537 kts 68°
2026-05-04 21:59 35.55651 -79.21220 28909 ft 536 kts 68°
2026-05-04 21:59 35.56879 -79.16909 29497 ft 535 kts 68°
2026-05-04 21:59 35.58307 -79.12720 30023 ft 532 kts 59°
2026-05-04 21:59 35.60181 -79.08889 30426 ft 529 kts 52°
2026-05-04 22:00 35.62440 -79.05297 30490 ft 533 kts 44°
2026-05-04 22:00 35.67704 -78.99326 30632 ft 539 kts 36°
2026-05-04 22:00 35.70573 -78.96340 30876 ft 540 kts 36°
2026-05-04 22:01 35.73422 -78.93346 31267 ft 538 kts 36°
2026-05-04 22:01 35.76215 -78.90362 31667 ft 537 kts 37°
2026-05-04 22:01 35.79025 -78.87319 32002 ft 537 kts 37°
2026-05-04 22:01 35.81828 -78.84265 32304 ft 537 kts 37°
2026-05-04 22:02 35.84623 -78.81217 32600 ft 537 kts 37°
2026-05-04 22:02 35.87431 -78.78158 32906 ft 536 kts 37°
2026-05-04 22:02 35.90234 -78.75158 33220 ft 535 kts 36°
2026-05-04 22:02 35.92116 -78.73179 33439 ft 535 kts 36°
2026-05-04 22:03 35.95883 -78.69257 33850 ft 534 kts 36°
2026-05-04 22:03 35.97810 -78.67253 34024 ft 535 kts 35°
2026-05-04 22:03 36.00647 -78.64298 34198 ft 537 kts 36°
2026-05-04 22:03 36.03489 -78.61324 34440 ft 537 kts 36°
2026-05-04 22:04 36.06336 -78.58332 34724 ft 536 kts 36°
2026-05-04 22:04 36.09170 -78.55345 34997 ft 535 kts 36°
2026-05-04 22:04 36.11970 -78.52388 35234 ft 535 kts 36°
2026-05-04 22:04 36.14807 -78.49392 35457 ft 535 kts 36°
2026-05-04 22:05 36.17644 -78.46391 35693 ft 535 kts 36°
2026-05-04 22:05 36.20428 -78.43446 35934 ft 535 kts 36°
2026-05-04 22:05 36.23266 -78.40441 36151 ft 535 kts 36°
2026-05-04 22:05 36.26095 -78.37442 36393 ft 535 kts 36°
2026-05-04 22:06 36.28923 -78.34440 36652 ft 534 kts 36°
2026-05-04 22:06 36.31738 -78.31451 36881 ft 534 kts 36°
2026-05-04 22:06 36.34563 -78.28449 36948 ft 537 kts 36°
2026-05-04 22:07 36.40217 -78.22351 36990 ft 538 kts 38°
2026-05-04 22:07 36.45634 -78.15958 36990 ft 535 kts 39°
2026-05-04 22:08 36.50957 -78.09552 37009 ft 532 kts 39°
2026-05-04 22:08 36.56262 -78.03250 37050 ft 531 kts 39°
2026-05-04 22:09 36.61436 -77.97140 37054 ft 532 kts 38°
2026-05-04 22:09 36.66816 -77.90774 37045 ft 534 kts 39°
2026-05-04 22:10 36.72200 -77.84380 37031 ft 535 kts 39°
2026-05-04 22:10 36.77590 -77.77964 36994 ft 536 kts 39°
2026-05-04 22:11 36.83001 -77.71524 36990 ft 537 kts 39°
2026-05-04 22:11 36.88424 -77.65071 36992 ft 537 kts 39°
2026-05-04 22:12 36.93808 -77.58647 36964 ft 536 kts 39°
2026-05-04 22:12 36.99207 -77.52189 36978 ft 535 kts 39°
2026-05-04 22:13 37.04568 -77.45767 36981 ft 535 kts 39°
2026-05-04 22:13 37.10307 -77.40031 36988 ft 525 kts 27°
2026-05-04 22:14 37.16721 -77.35998 36976 ft 513 kts 14°
2026-05-04 22:14 37.23466 -77.33130 36982 ft 511 kts 13°
2026-05-04 22:15 37.30225 -77.30314 36981 ft 511 kts 13°
2026-05-04 22:15 37.36936 -77.27435 36958 ft 510 kts 14°
2026-05-04 22:16 37.43637 -77.24516 36955 ft 509 kts 14°
2026-05-04 22:16 37.50333 -77.21593 36971 ft 509 kts 14°
2026-05-04 22:17 37.57024 -77.18673 36950 ft 509 kts 14°
2026-05-04 22:17 37.63711 -77.15750 36961 ft 508 kts 14°
2026-05-04 22:18 37.70316 -77.12636 36975 ft 512 kts 20°
2026-05-04 22:18 37.76642 -77.08391 36955 ft 515 kts 25°
2026-05-04 22:19 37.82884 -77.03955 36962 ft 516 kts 25°
2026-05-04 22:19 37.89000 -76.99658 36962 ft 516 kts 24°
2026-05-04 22:20 37.95285 -76.95291 36991 ft 511 kts 25°
2026-05-04 22:20 37.98369 -76.93141 36493 ft 506 kts 24°
2026-05-04 22:20 38.01438 -76.90981 35830 ft 508 kts 26°
2026-05-04 22:20 38.04459 -76.88615 35364 ft 513 kts 29°
2026-05-04 22:21 38.07400 -76.86040 35264 ft 511 kts 32°
2026-05-04 22:21 38.10219 -76.83337 35422 ft 504 kts 34°
2026-05-04 22:21 38.12921 -76.80680 35509 ft 495 kts 28°
2026-05-04 22:21 38.16005 -76.78879 35137 ft 486 kts 10°
2026-05-04 22:22 38.19299 -76.77912 34787 ft 487 kts 10°
2026-05-04 22:22 38.22495 -76.76508 34424 ft 496 kts 20°
2026-05-04 22:22 38.25504 -76.74397 34097 ft 505 kts 31°
2026-05-04 22:23 38.30740 -76.68455 33933 ft 509 kts 39°
2026-05-04 22:23 38.35945 -76.62465 33965 ft 510 kts 37°
2026-05-04 22:24 38.41332 -76.56636 33940 ft 507 kts 36°
2026-05-04 22:24 38.46721 -76.50838 33939 ft 505 kts 36°
2026-05-04 22:25 38.52097 -76.45078 33939 ft 505 kts 36°
2026-05-04 22:25 38.57481 -76.39296 33964 ft 505 kts 36°
2026-05-04 22:26 38.62823 -76.33538 33951 ft 504 kts 36°
2026-05-04 22:26 38.67962 -76.27985 33938 ft 504 kts 36°
2026-05-04 22:27 38.73296 -76.22211 33939 ft 504 kts 36°
2026-05-04 22:27 38.78658 -76.16396 33945 ft 504 kts 36°
2026-05-04 22:28 38.83995 -76.10596 33939 ft 505 kts 36°
2026-05-04 22:28 38.89349 -76.04764 33938 ft 507 kts 36°
2026-05-04 22:29 38.94514 -75.99128 33935 ft 508 kts 36°
2026-05-04 22:29 38.99835 -75.93125 33920 ft 509 kts 39°
2026-05-04 22:30 39.04979 -75.86930 33917 ft 509 kts 39°
2026-05-04 22:30 39.10147 -75.80698 33919 ft 508 kts 39°
2026-05-04 22:31 39.15323 -75.74513 33931 ft 507 kts 39°
2026-05-04 22:31 39.20475 -75.68361 33917 ft 505 kts 39°
2026-05-04 22:32 39.25620 -75.62200 33907 ft 503 kts 39°
2026-05-04 22:32 39.30695 -75.56109 33908 ft 502 kts 39°
2026-05-04 22:33 39.35794 -75.49953 33936 ft 501 kts 39°
2026-05-04 22:33 39.40844 -75.43831 33927 ft 500 kts 39°
2026-05-04 22:34 39.45897 -75.37695 33917 ft 498 kts 39°
2026-05-04 22:34 39.50946 -75.31552 33923 ft 497 kts 39°
2026-05-04 22:35 39.55975 -75.25423 33930 ft 496 kts 39°
2026-05-04 22:35 39.60992 -75.19294 33921 ft 495 kts 39°
2026-05-04 22:36 39.66003 -75.13161 33917 ft 495 kts 39°
2026-05-04 22:36 39.71082 -75.07173 33924 ft 493 kts 36°
2026-05-04 22:37 39.76338 -75.01455 33909 ft 494 kts 37°
2026-05-04 22:37 39.81408 -74.95776 33921 ft 497 kts 38°